Home > Time Zones > World Clock > Weather > U.S.A. > Hilo > Past weeks

Flag for U.S.A. Weather past 2 weeks in Hilo, Hawaii, U.S.A.

Now
71 °F

Passing clouds.


Feels Like: 70 °F
Forecast: 65 / 81 °F
Wind: 6 mph from West

Location: Hilo International Airport

Current Time: Apr 20, 2015 at 7:55:18 PM

Latest Report: Apr 20, 2015 at 6:53 PM


Visibility: 10 mi

Pressure: 30.07 "Hg

Humidity: 84%

Dew point: 66 °F

Location of HiloLocation

Historic Weather in Hilo — Graph

°F

Hilo temperature yesterday

Maximum temperature yesterday: 79 °F (at 12:53 PM)
Minimum temperature yesterday: 66 °F (at 12:14 AM)
Average temperature yesterday: 70 °F

Past Weeks' High & Low Weather Summary

 TemperatureHumidityPressure
High82 °F (Apr 18, 11:53 AM)100% (Apr 7, 9:00 AM)30.18 "Hg (Apr 7, 9:00 AM)
Low63 °F (Apr 16, 5:33 AM)53% (Apr 18, 2:53 PM)29.96 "Hg (Apr 6, 2:53 PM)
Average71 °F85%30.08 "Hg
* Reported Apr 5 5:53 PM — Apr 20 5:53 PM, Hilo, Weather by CustomWeather, © 2015

Note: Actual official high and low records may vary slightly from our data, if they occured in-between our weather recording intervals... More about our weather records

Advertising

Hilo weather history for previous 24 hours

 ConditionsComfort  
Time TempWeatherWind HumidityBarometerVisibility
5:53 PM
Mon, Apr 20
72 °FScattered clouds.7 mph78%30.06 "Hg10 mi
4:53 PM73 °FMostly cloudy.7 mph81%30.04 "Hg10 mi
4:21 PM72 °FMostly cloudy.3 mph83%30.05 "Hg10 mi
4:06 PM72 °FLight rain. Cloudy.12 mph83%30.05 "Hg10 mi
2:53 PM77 °FBroken clouds.5 mph69%30.05 "Hg10 mi
2:07 PM79 °FBroken clouds.10 mph65%30.06 "Hg10 mi
1:53 PM78 °FPartly sunny.10 mph64%30.06 "Hg10 mi
12:53 PM80 °FBroken clouds.No wind67%30.09 "Hg10 mi
11:53 AM74 °FPartly sunny.7 mph79%30.11 "Hg10 mi
11:20 AM72 °FPartly sunny.5 mph94%30.13 "Hg10 mi
10:53 AM72 °FHeavy rain. Fog.7 mph87%30.14 "Hg2 mi
9:53 AM74 °FMostly cloudy.5 mph74%30.13 "Hg10 mi
9:36 AM72 °FLight rain. Fog.6 mph83%30.14 "Hg4 mi
8:53 AM71 °FPartly sunny.10 mph87%30.13 "Hg10 mi
8:13 AM70 °FLight rain. Fog.6 mph88%30.13 "Hg3 mi
8:04 AM70 °FLight rain. Cloudy.No wind83%30.13 "Hg2 mi
6:53 AM68 °FMostly cloudy.6 mph93%30.11 "Hg10 mi
6:32 AM66 °FLight rain. Cloudy.7 mph100%30.11 "Hg10 mi
6:04 AM66 °FLight rain. Fog.5 mph94%30.11 "Hg3 mi
5:53 AM68 °FLight rain. Fog.5 mph90%30.11 "Hg2 mi
4:53 AM69 °FOvercast.6 mph90%30.09 "Hg10 mi
3:53 AM68 °FMostly cloudy.6 mph93%30.09 "Hg10 mi
2:53 AM67 °FPartly cloudy.3 mph97%30.09 "Hg10 mi
2:13 AM66 °FPartly cloudy.6 mph94%30.11 "Hg10 mi
1:53 AM68 °FLight rain. Mostly cloudy.No wind93%30.12 "Hg8 mi
1:34 AM68 °FRain. Fog.No wind88%30.13 "Hg2 mi
1:21 AM68 °FMostly cloudy.5 mph88%30.13 "Hg9 mi
12:53 AM68 °FMostly cloudy.7 mph93%30.13 "Hg10 mi
12:14 AM68 °FOvercast.7 mph88%30.16 "Hg10 mi
11:53 PM
Sun, Apr 19
69 °FRain. Fog.6 mph90%30.17 "Hg6 mi
11:06 PM68 °FMostly cloudy.7 mph94%30.18 "Hg10 mi
11:00 PM68 °FLight rain. Mostly cloudy.7 mph90%30.17 "Hg10 mi
10:29 PM68 °FLight rain. Overcast.9 mph94%30.17 "Hg10 mi
10:15 PM68 °FLight rain. Mostly cloudy.8 mph94%30.17 "Hg9 mi
9:53 PM69 °FLight rain. Mostly cloudy.8 mph90%30.17 "Hg7 mi
9:35 PM70 °FLight rain. Mostly cloudy.5 mph88%30.17 "Hg7 mi
8:53 PM69 °FLight rain. Mostly cloudy.No wind90%30.15 "Hg8 mi
7:53 PM69 °FLight rain. Mostly cloudy.3 mph90%30.14 "Hg9 mi
7:38 PM70 °FLight rain. Fog.9 mph83%30.14 "Hg4 mi
7:24 PM72 °FLight rain. Mostly cloudy.7 mph78%30.14 "Hg10 mi
Weather by CustomWeather, © 2015

See weather overviewHow to use our weather pages